GW1255 Weather Reports


Display with metric or nautical units.
time (UTC)temp
F
wind
direction
speed
MPH
gust
MPH
rain 1hr
in
rain 24hr
in
rain mn
in
humidity
%
barometer
mb
20260507212703 51 110 1.0 2.0 0.00 0.00 0.00 80 1016.0
20260507211803 51 115 1.0 1.0 0.00 0.00 0.00 80 1015.8
20260507210903 51 114 1.0 2.0 0.00 0.00 0.00 80 1015.8
20260507210217 51 111 1.0 2.0 0.00 0.00 0.00 80 1015.7
20260507205403 51 110 1.0 2.0 0.00 0.00 0.00 80 1015.7
20260507204503 51 113 2.0 3.0 0.00 0.00 0.00 80 1015.7
20260507203603 51 118 2.0 3.0 0.00 0.00 0.00 79 1015.7
20260507202703 51 112 2.0 3.0 0.00 0.00 0.00 79 1015.7
20260507201803 52 112 2.0 2.0 0.00 0.00 0.00 79 1015.6
20260507200903 52 109 1.0 2.0 0.00 0.00 0.00 79 1015.5
20260507200216 52 105 1.0 2.0 0.00 0.00 0.00 79 1015.5
20260507195618 52 105 1.0 2.0 0.00 0.00 0.00 78 1015.5
20260507194503 52 114 2.0 3.0 0.00 0.00 0.00 78 1015.3
20260507193603 52 128 2.0 3.0 0.00 0.00 0.00 77 1015.3
20260507192703 52 122 2.0 3.0 0.00 0.00 0.00 76 1015.3
20260507191803 53 131 2.0 3.0 0.00 0.00 0.00 76 1015.3
20260507190903 53 137 2.0 3.0 0.00 0.00 0.00 76 1015.2
20260507190005 53 137 3.0 4.0 0.00 0.00 0.00 75 1015.2
20260507185403 53 143 3.0 4.0 0.00 0.00 0.00 75 1015.2
20260507184504 54 169 2.0 4.0 0.00 0.00 0.00 75 1015.2
20260507183603 54 138 3.0 4.0 0.00 0.00 0.00 75 1015.3
20260507182918 54 156 3.0 4.0 0.00 0.00 0.00 74 1015.3
20260507181803 55 167 2.0 3.0 0.00 0.00 0.00 73 1015.2
20260507181118 55 140 3.0 5.0 0.00 0.00 0.00 72 1015.1
20260507180003 55 157 4.0 6.0 0.00 0.00 0.00 70 1015.1
20260507175403 55 144 5.0 8.0 0.00 0.00 0.00 69 1015.1
20260507174503 55 137 5.0 8.0 0.00 0.00 0.00 68 1015.0
20260507173603 56 148 5.0 8.0 0.00 0.00 0.00 68 1015.1
20260507172703 56 130 4.0 6.0 0.00 0.00 0.00 68 1015.0
20260507171803 56 141 4.0 6.0 0.00 0.00 0.00 68 1015.1
20260507170903 55 135 3.0 6.0 0.00 0.00 0.00 69 1015.1
20260507170003 55 116 4.0 7.0 0.00 0.00 0.00 69 1015.1
20260507165403 55 111 4.0 6.0 0.00 0.00 0.00 68 1015.1
20260507164719 55 114 5.0 8.0 0.00 0.00 0.00 68 1015.2
20260507163603 55 121 7.0 9.0 0.00 0.00 0.00 67 1015.2
20260507162917 55 127 6.0 10.0 0.00 0.00 0.00 71 1015.1
20260507162018 54 134 5.0 7.0 0.00 0.00 0.00 71 1015.2
20260507161118 54 124 7.0 10.0 0.00 0.00 0.00 72 1015.2
20260507160003 54 132 6.0 8.0 0.00 0.00 0.00 71 1015.1
20260507155403 54 147 6.0 9.0 0.00 0.00 0.00 70 1015.2
20260507154503 55 142 6.0 9.0 0.00 0.00 0.00 70 1015.2
20260507153603 56 134 5.0 7.0 0.00 0.00 0.00 70 1015.1
20260507152916 56 130 4.0 6.0 0.00 0.00 0.00 70 1015.1
20260507151803 56 121 4.0 6.0 0.00 0.00 0.00 70 1015.2
20260507150903 55 137 2.0 3.0 0.00 0.00 0.00 69 1015.1
20260507150004 56 137 4.0 6.0 0.00 0.00 0.00 68 1015.2
20260507145403 56 143 4.0 7.0 0.00 0.00 0.00 68 1015.2
20260507144503 56 136 4.0 5.0 0.00 0.00 0.00 68 1015.2
20260507143603 55 140 4.0 6.0 0.00 0.00 0.00 68 1015.3
20260507142703 55 142 3.0 6.0 0.00 0.00 0.00 69 1015.3
20260507141803 54 248 2.0 3.0 0.00 0.00 0.00 73 1015.5
20260507141117 53 255 2.0 3.0 0.00 0.00 0.00 73 1015.5
20260507140003 53 244 3.0 5.0 0.00 0.00 0.00 72 1015.5
20260507135403 54 237 4.0 7.0 0.00 0.00 0.00 72 1015.6
20260507134503 55 186 4.0 8.0 0.00 0.00 0.00 69 1015.7
20260507133603 55 177 5.0 9.0 0.00 0.00 0.00 67 1015.6
20260507132703 55 120 3.0 7.0 0.00 0.00 0.00 68 1015.6
20260507132017 55 108 6.0 10.0 0.00 0.00 0.00 67 1015.6
20260507130903 56 123 3.0 6.0 0.00 0.00 0.00 66 1015.6
20260507130218 55 128 5.0 7.0 0.00 0.00 0.00 66 1015.6
20260507125403 56 153 4.0 7.0 0.00 0.00 0.00 66 1015.6
20260507124503 56 123 5.0 8.0 0.00 0.00 0.00 65 1015.6
20260507123603 56 144 3.0 5.0 0.00 0.00 0.00 65 1015.6
20260507122705 56 138 5.0 8.0 0.00 0.00 0.00 66 1015.6
20260507122017 56 142 6.0 8.0 0.00 0.00 0.00 66 1015.6
20260507120903 55 114 6.0 11.0 0.00 0.00 0.00 66 1015.7
20260507120004 55 133 4.0 8.0 0.00 0.00 0.00 67 1015.8
20260507115403 55 132 5.0 9.0 0.00 0.00 0.00 67 1015.7
20260507114504 55 111 7.0 10.0 0.00 0.00 0.00 67 1015.8
20260507113603 56 112 7.0 11.0 0.00 0.00 0.00 66 1015.9
20260507112703 56 109 7.0 13.0 0.00 0.00 0.00 69 1015.8
20260507111803 56 181 6.0 10.0 0.00 0.00 0.00 66 1015.8
20260507111118 56 181 6.0 10.0 0.00 0.00 0.00 65 1015.9
20260507110003 55 154 7.0 9.0 0.00 0.00 0.00 65 1016.0
20260507105403 55 132 7.0 9.0 0.00 0.00 0.00 64 1016.0
20260507104503 54 116 8.0 11.0 0.00 0.00 0.00 68 1016.1
20260507103817 54 126 7.0 11.0 0.00 0.00 0.00 69 1016.1
20260507102703 54 134 6.0 11.0 0.00 0.00 0.00 70 1016.2
20260507101803 53 111 5.0 7.0 0.00 0.00 0.00 73 1016.1
20260507100903 53 108 5.0 7.0 0.00 0.00 0.00 75 1016.2
20260507100004 52 110 6.0 10.0 0.00 0.00 0.00 78 1016.1
20260507095403 51 119 6.0 10.0 0.00 0.00 0.00 78 1016.2
20260507094503 50 111 7.0 10.0 0.00 0.00 0.00 80 1016.1
20260507093817 49 114 7.0 10.0 0.00 0.00 0.00 80 1016.2
20260507092918 49 113 7.0 11.0 0.00 0.00 0.00 81 1016.1
20260507091803 48 117 5.0 8.0 0.00 0.00 0.00 82 1016.1
20260507090903 48 118 4.0 7.0 0.00 0.00 0.00 83 1016.1
20260507090004 47 114 5.0 8.0 0.00 0.00 0.00 84 1016.2
20260507085403 46 100 6.0 8.0 0.00 0.00 0.00 84 1016.2
20260507084503 46 96 6.0 8.0 0.00 0.00 0.00 85 1016.2
20260507083816 46 98 5.0 7.0 0.00 0.00 0.00 85 1016.3
20260507082703 45 95 4.0 5.0 0.00 0.00 0.00 86 1016.4
20260507081803 45 109 4.0 6.0 0.00 0.00 0.00 85 1016.4
20260507080903 45 120 4.0 6.0 0.00 0.00 0.00 86 1016.3
20260507080004 45 109 5.0 7.0 0.00 0.00 0.00 86 1016.1
20260507075403 44 108 5.0 7.0 0.00 0.00 0.00 86 1016.1
20260507074717 44 112 5.0 6.0 0.00 0.00 0.00 86 1016.2
20260507073603 44 105 5.0 6.0 0.00 0.00 0.00 87 1016.0
20260507072703 44 105 4.0 6.0 0.00 0.00 0.00 87 1016.1
20260507071803 44 109 4.0 6.0 0.00 0.00 0.00 87 1016.1
20260507070903 44 109 4.0 7.0 0.00 0.00 0.00 88 1016.0
20260507070005 43 110 5.0 7.0 0.00 0.00 0.00 88 1015.9
20260507065403 44 111 4.0 4.0 0.00 0.00 0.00 88 1015.8
20260507064503 43 111 5.0 7.0 0.00 0.00 0.00 88 1015.8
20260507063603 43 111 6.0 7.0 0.00 0.00 0.00 88 1015.8
20260507062703 43 105 5.0 7.0 0.00 0.00 0.00 88 1015.7
20260507061803 43 107 6.0 7.0 0.00 0.00 0.00 88 1015.7
20260507060903 43 104 5.0 7.0 0.00 0.00 0.00 88 1015.7
20260507060003 43 109 5.0 7.0 0.00 0.00 0.00 88 1015.7
20260507055617 43 105 5.0 7.0 0.00 0.00 0.00 88 1015.7
20260507054503 43 104 5.0 7.0 0.00 0.00 0.00 88 1015.6
20260507053817 43 103 5.0 6.0 0.00 0.00 0.00 88 1015.6
20260507052703 43 96 4.0 7.0 0.00 0.00 0.00 88 1015.5
20260507051803 43 104 4.0 6.0 0.00 0.00 0.00 88 1015.6
20260507050903 43 106 4.0 4.0 0.00 0.00 0.00 88 1015.5
20260507050003 43 115 3.0 4.0 0.00 0.00 0.00 88 1015.6
20260507045403 43 113 3.0 3.0 0.00 0.00 0.00 88 1015.5
20260507044503 43 112 3.0 4.0 0.00 0.00 0.00 88 1015.5
20260507043817 43 110 3.0 4.0 0.00 0.00 0.00 88 1015.4
20260507042703 43 108 3.0 6.0 0.00 0.00 0.00 87 1015.4
20260507041803 43 106 4.0 6.0 0.00 0.00 0.00 87 1015.3
20260507040903 43 106 3.0 4.0 0.00 0.00 0.00 87 1015.5
20260507040003 43 102 3.0 4.0 0.00 0.00 0.00 87 1015.4
20260507035403 43 105 3.0 4.0 0.00 0.00 0.00 87 1015.4
20260507034503 43 108 2.0 3.0 0.00 0.00 0.00 87 1015.5
20260507033603 43 112 2.0 3.0 0.00 0.00 0.00 86 1015.5
20260507032703 43 82 0.0 1.0 0.00 0.00 0.00 86 1015.5
20260507031803 43 96 1.0 3.0 0.00 0.00 0.00 86 1015.5
20260507030903 44 96 2.0 3.0 0.00 0.00 0.00 86 1015.6
20260507030003 44 90 1.0 3.0 0.00 0.00 0.00 86 1015.5
20260507025403 44 88 1.0 2.0 0.00 0.00 0.00 86 1015.6
20260507024503 44 92 2.0 3.0 0.00 0.00 0.00 86 1015.6
20260507023603 44 108 3.0 4.0 0.00 0.00 0.00 86 1015.5
20260507022703 44 104 3.0 5.0 0.00 0.00 0.00 86 1015.6
20260507021803 44 106 3.0 5.0 0.00 0.00 0.00 86 1015.5
20260507021116 44 106 3.0 5.0 0.00 0.00 0.00 86 1015.6
20260507020003 44 106 4.0 5.0 0.00 0.00 0.00 86 1015.5
20260507015403 44 108 3.0 5.0 0.00 0.00 0.00 86 1015.5
20260507014504 44 94 3.0 4.0 0.00 0.00 0.00 85 1015.5
20260507013603 44 105 4.0 6.0 0.00 0.00 0.00 85 1015.5
20260507012704 44 110 3.0 5.0 0.00 0.00 0.00 85 1015.5
20260507011803 44 107 5.0 6.0 0.00 0.00 0.00 85 1015.6
20260507010904 45 103 5.0 6.0 0.00 0.00 0.00 84 1015.6
20260507010218 45 102 3.0 5.0 0.00 0.00 0.00 84 1015.6
20260507005403 45 103 4.0 5.0 0.00 0.00 0.00 84 1015.6
20260507004503 45 106 5.0 7.0 0.00 0.00 0.00 84 1015.5
20260507003603 45 107 5.0 8.0 0.00 0.00 0.00 84 1015.5
20260507002704 45 104 6.0 9.0 0.00 0.00 0.00 83 1015.5
20260507001804 46 96 6.0 9.0 0.00 0.00 0.00 83 1015.6
20260507000904 46 106 6.0 10.0 0.00 0.00 0.00 83 1015.8
20260507000004 46 107 5.0 8.0 0.00 0.00 0.00 82 1015.7
20260506235403 46 104 5.0 6.0 0.00 0.00 0.00 82 1015.7
20260506234503 46 102 5.0 6.0 0.00 0.00 0.00 82 1015.6
20260506233603 46 105 7.0 9.0 0.00 0.00 0.00 81 1015.6
20260506232703 46 100 7.0 10.0 0.00 0.00 0.00 80 1015.6
20260506231803 46 103 9.0 13.0 0.00 0.00 0.00 80 1015.6
20260506230903 46 106 8.0 11.0 0.00 0.00 0.00 79 1015.6
20260506230005 46 107 8.0 11.0 0.00 0.00 0.00 78 1015.6
20260506225403 47 104 6.0 9.0 0.00 0.00 0.00 78 1015.6
20260506224503 47 95 6.0 8.0 0.00 0.00 0.00 77 1015.6
20260506223603 47 94 6.0 8.0 0.00 0.00 0.00 77 1015.6
20260506222703 47 101 5.0 7.0 0.00 0.00 0.00 77 1015.4
20260506221803 47 99 5.0 7.0 0.00 0.00 0.00 76 1015.5
20260506220903 47 94 5.0 8.0 0.00 0.00 0.00 76 1015.6
20260506220218 48 92 6.0 8.0 0.00 0.00 0.00 75 1015.5
20260506215403 48 98 5.0 8.0 0.00 0.00 0.00 74 1015.3
20260506214503 48 97 6.0 9.0 0.00 0.00 0.00 74 1015.3
20260506213603 48 92 7.0 10.0 0.00 0.00 0.00 72 1015.2